sat.trackr.live / text

‹ back to catalog

ICEYE-X39

NORAD 60546 · 2024-149CG

PAYLOAD ACTIVE UNKNOWN

§ Identity

Operator
Country
BRAZ
Launch date
2024-08-16
Launch site
AFWTR
Launch vehicle
Mass (kg)
RCS (m²)

External: N2YO · Heavens-Above · Gunter

§ Orbital elements

Epoch: 2026-09-22T17:35:25.845792Z

Period
96.00 min
Inclination
97.6709°
Eccentricity
0.0010026
Mean motion
15.00014698 rev/d
Perigee alt
559.9 km
Apogee alt
573.8 km
Semi-major
6,945.0 km
B*
1.2182e-4
RAAN
341.4689°
Arg perigee
165.9513°
Mean anomaly
194.1992°
Rev number
11,474

§ Raw data

ICEYE-X391 60546U 24149CG  26265.73293803  .00001457  00000+0  12182-3 0  99902 60546  97.6709 341.4689 0010026 165.9513 194.1992 15.00014698114741

JSON: /api/v1/satellites/60546 · /tle

For live sub-satellite position, see the globe view (requires WebGL).

§ Visibility from observer

Set your observer location to see the next 7 days of passes ≥ 10°. The values pass through the URL so the page stays shareable.

No JS? Fill the form by hand. The geolocation button needs JavaScript.

§ Radio — SatNOGS DB

ModeDescriptionDownlinkUplink
UNKNOWN S-band telemetry 2.264 GHz

1 transmitter · refreshed weekly from db.satnogs.org